Location: Castrojimeno
(41.3966°N, 3.8473°W)
Time: 22:40:39
(UTC+00:00)

Cosmos 1513 Rocket - Pass Details

Date: 15 May 2026
Orbit: 938 x 1008 km, 82.9° (Epoch: 10 June)

Event Time Altitude Azimuth Distance (km) Brightness Sun altitude
Exits shadow 21:15:00 20° 169° (S) 2,079 5.7 -17.0°
Maximum altitude 21:19:22 64° 93° (E) 1,059 4.5 -17.6°
Drops below altitude 10° 21:25:26 10° 14° (NNE) 2,688 7.3 -18.3°
Sets 21:27:56 0° 11° (N) 3,630 8.0 -18.7°
